Tracking 19795 objects as of 20-Jul-2019
HD Live streaming from Space Station
objects crossing your sky now

FENGYUN 1C DEB

Track FENGYUN 1C DEB now!
10-day predictions


NORAD ID: 30684
Int'l Code: 1999-025AQS
Perigee: 849.3 km
Apogee: 1,217.4 km
Inclination: 99.7 °
Period: 105.7 minutes
Semi major axis: 7404 km
RCS: 0.036 m2 (small)
Launch date: May 10, 1999
Source: People's Republic of China (PRC)
Launch site: Taiyaun Space Center, China (TSC)

Note: This is SATELLITE DEBRIS
aabbcc
Your satellite tracking list
Your tracking list is empty




NASA's NSSDC Master Catalog

Two Line Element Set (TLE):
1 30684U 99025AQS 19201.03987650  .00000316  00000-0  37499-3 0  9992
2 30684  99.7075 234.6151 0248548 116.3561 276.3984 13.62615075618602
Source of the keplerian elements: AFSPC